This demonstration page uses our WeatherBlox Daily Observations layout. Learn more.

41.55636, -103.73856

Hourly Observations for February 20, 2019

Temp ( °F °C ) Dew Point ( °F °C ) Humidity (%) Winds ( mph kmh ) Pressure ( in mb ) Visibility ( mi km ) Precip ( " mm )
12:58 am 00:58 Mostly Cloudy 12 -11.2 9 -13 87 87 S 10 17 29.99 1016 10 16.0934 N/A
1:58 am 01:58 Mostly Cloudy with Light Snow Showers 12 -11.3 9 -12.7 90 90 S 10 17 29.99 1016 9 14.48406 N/A
2:58 am 02:58 Partly Cloudy with Light Snow Showers 9 -12.9 6 -14.4 89 89 SSW 8 13 29.99 1016 9 14.48406 N/A
3:58 am 03:58 Partly Cloudy with Light Snow Showers 9 -12.8 6 -14.3 89 89 SW 10 17 29.96 1015 10 16.0934 N/A
4:58 am 04:58 Clear 9 -12.8 6 -14.5 87 87 SW 8 13 29.94 1014 8 12.87472 N/A
5:58 am 05:58 Clear 8 -13.1 3 -15.9 80 80 W 13 20 29.88 1012 10 16.0934 N/A
6:58 am 06:58 Clear 9 -12.7 1 -17.1 70 70 WNW 7 11 29.86 1011 10 16.0934 N/A
7:58 am 07:58 Clear 7 -13.7 0 -17.8 71 71 WNW 12 19 29.84 1011 10 16.0934 N/A
8:58 am 08:58 Clear 7 -13.9 -1 -18.5 68 68 WNW 14 22 29.82 1010 10 16.0934 N/A
9:58 am 09:58 Clear 9 -12.9 -1 -18.3 64 64 WNW 18 30 29.79 1009 10 16.0934 N/A
10:58 am 10:58 Clear 8 -13.6 -2 -18.8 65 65 WNW 10 17 29.79 1009 10 16.0934 N/A
11:58 am 11:58 Clear 10 -12 -1 -18.1 61 61 WNW 18 30 29.75 1008 10 16.0934 N/A
12:58 pm 12:58 Clear 8 -13.1 -1 -18.3 65 65 WNW 15 24 29.77 1008 10 16.0934 N/A
1:58 pm 13:58 Mostly Cloudy 12 -11.1 1 -17.1 62 62 WNW 21 33 29.75 1008 10 16.0934 N/A
2:58 pm 14:58 Mostly Cloudy 13 -10.5 2 -16.8 60 60 WNW 15 24 29.78 1008 10 16.0934 N/A
3:58 pm 15:58 Sunny 18 -7.9 4 -15.6 54 54 WNW 26 43 29.77 1008 10 16.0934 N/A
4:58 pm 16:58 Sunny 21 -6.1 4 -15.3 49 49 WNW 33 54 29.77 1008 10 16.0934 N/A
5:58 pm 17:58 Sunny 23 -4.8 6 -14.7 46 46 NW 30 48 29.77 1008 10 16.0934 N/A
6:58 pm 18:58 Sunny 26 -3.6 5 -15.2 41 41 NW 32 52 29.74 1007 10 16.0934 N/A
7:58 pm 19:58 Mostly Cloudy 27 -2.9 6 -14.7 40 40 NW 25 41 29.74 1007 10 16.0934 N/A
8:58 pm 20:58 Mostly Sunny 26 -3.5 3 -16 38 38 WNW 32 52 29.75 1008 10 16.0934 N/A
9:58 pm 21:58 Sunny 27 -2.7 3 -16.3 35 35 NW 36 57 29.76 1008 10 16.0934 N/A
10:58 pm 22:58 Sunny 27 -3 3 -15.9 37 37 NW 33 54 29.8 1009 10 16.0934 N/A

Powered by AerisWeather